{"data":{"norad_id":60113,"intl_designator":"2024-118A","name":"STARLINK-11201 [DTC]","alt_names":[],"object_type":"PAYLOAD","status":"ACTIVE","operator":null,"country":"US","launch_date":"2024-06-24","launch_site_code":"AFWTR","launch_vehicle":null,"mission":null,"orbit_class":"UNKNOWN","rcs_meters":null,"size_class":null,"mass_kg":null,"dimensions":null,"purposes":["comms"],"wikipedia_slug":null,"has_3d_model":false,"image_url":null,"decayed_at":null,"tle_current":{"epoch":"2026-09-21T12:03:15.696864Z","epoch_age_seconds":91008,"freshness":"FRESH","line1":"1 60113U 24118A   26264.50226501 -.00001191  00000+0 -49694-5 0  9998","line2":"2 60113  53.1606 336.2925 0001294  80.4797 279.6367 15.69704823128742","mean_motion":15.69704823,"eccentricity":0.0001294,"inclination_deg":53.1606,"raan_deg":336.2925,"arg_perigee_deg":80.4797,"mean_anomaly_deg":279.6367,"bstar":-4.9694e-6,"rev_number":12874,"period_min":91.736992770901,"perigee_km":358.86968356653,"apogee_km":360.61344653917,"semimajor_km":6737.8785650528,"source":"CELESTRAK","updated_at":"2026-09-22T09:00:49.154433Z"}}}